User: anonymous   Login
Location: Melbourne
(37.8170°S, 144.9670°E)
Time: 02:34:32
(UTC+11:00)
Language:

CZ-3 R/B - Orbit

View from above orbital plane
View from above orbital plane
View from above satellite
View from above satellite

Ground track
Ground track

The orbit data is extracted from the following two-line orbital elements,

1 29517U 06048B   18015.86956590 +.00005318 +00000-0 +36134-3 0  9992
2 29517 028.3883 186.9929 4327516 067.8974 331.9239 06.84160928182084
Epoch (UTC): 15 January 2018 20:52:10
Eccentricity: 0.4327516
inclination: 28.3883°
perigee height: 270 km
apogee height: 10415 km
right ascension of ascending node: 186.9929°
argument of perigee: 67.8974°
revolutions per day: 6.84160928
mean anomaly at epoch: 331.9239°
orbit number at epoch: 18208

The dashed part of the orbit path shows where the satellite is in the earth's shadow,  

DLR